Time,TemperatureF,DewpointF,PressureIn,WindDirection,WindDirectionDegrees,WindSpeedMPH,WindSpeedGustMPH,Humidity,HourlyPrecipIn,Conditions,Clouds,dailyrainin,SoftwareType,DateUTC
2013-12-12 00:22:00,-1.0,-9.0,30.65,West,270,0.0,3.0,68,-99.99,,,-99.99,,2013-12-12 06:22:00,
2013-12-12 00:52:00,-1.0,-9.0,30.64,West,270,4.0,7.0,67,-99.99,,,-99.99,,2013-12-12 06:52:00,
2013-12-12 01:22:00,-1.0,-9.0,30.61,West,270,0.0,0.0,67,-99.99,,,-99.99,,2013-12-12 07:22:00,
2013-12-12 01:42:00,0.0,-8.0,30.60,West,270,0.0,0.0,68,-99.99,,,-99.99,,2013-12-12 07:42:00,
2013-12-12 01:52:00,0.0,-8.0,30.60,West,270,0.0,0.0,68,-99.99,,,-99.99,,2013-12-12 07:52:00,
2013-12-12 02:22:00,1.0,-7.0,30.57,West,270,0.0,0.0,68,-99.99,,,-99.99,,2013-12-12 08:22:00,
2013-12-12 02:52:00,2.0,-6.0,30.55,West,270,7.0,7.0,68,-99.99,,,-99.99,,2013-12-12 08:52:00,
2013-12-12 03:22:00,2.0,-6.0,30.53,West,270,0.0,6.0,68,-99.99,,,-99.99,,2013-12-12 09:22:00,
2013-12-12 03:54:00,2.0,-6.0,30.52,West,270,3.0,10.0,68,-99.99,,,-99.99,,2013-12-12 09:54:00,
2013-12-12 04:23:00,3.0,-5.0,30.52,West,270,0.0,4.0,68,-99.99,,,-99.99,,2013-12-12 10:23:00,
2013-12-12 04:53:00,3.0,-5.0,30.50,West,270,5.0,5.0,68,-99.99,,,-99.99,,2013-12-12 10:53:00,
2013-12-12 05:23:00,4.0,-4.0,30.49,West,270,3.0,3.0,69,-99.99,,,-99.99,,2013-12-12 11:23:00,
2013-12-12 05:42:00,4.0,-4.0,30.49,West,270,0.0,2.0,69,-99.99,,,-99.99,,2013-12-12 11:42:00,
2013-12-12 05:53:00,4.0,-4.0,30.49,West,270,0.0,2.0,69,-99.99,,,-99.99,,2013-12-12 11:53:00,
2013-12-12 06:22:00,4.0,-4.0,30.48,West,270,0.0,0.0,69,-99.99,,,-99.99,,2013-12-12 12:22:00,
2013-12-12 06:52:00,5.0,-3.0,30.47,West,270,0.0,0.0,70,-99.99,,,-99.99,,2013-12-12 12:52:00,
2013-12-12 07:21:00,6.0,-2.0,30.47,West,270,0.0,0.0,70,-99.99,,,-99.99,,2013-12-12 13:21:00,
2013-12-12 07:50:00,7.0,-1.0,30.47,West,270,0.0,6.0,70,-99.99,,,-99.99,,2013-12-12 13:50:00,
2013-12-12 07:52:00,6.0,-2.0,30.47,West,270,0.0,0.0,70,-99.99,,,-99.99,,2013-12-12 13:52:00,
2013-12-12 08:02:00,6.0,-2.0,30.47,West,270,0.0,0.0,70,-99.99,,,-99.99,,2013-12-12 14:02:00,
2013-12-12 08:22:00,7.0,-1.0,30.47,West,270,0.0,6.0,70,-99.99,,,-99.99,,2013-12-12 14:22:00,
2013-12-12 08:32:00,7.0,-1.0,30.47,West,270,0.0,6.0,70,-99.99,,,-99.99,,2013-12-12 14:32:00,